[[{"header":{"parameterUnit":"m.s-1","parameterCategory":1,"la1":30.2991,"la2":30.254,"lo1":-89.0895,"lo2":-89.0444,"dy":0.0017,"dx":0.0017,"nx":28,"ny":28,"refTime":"2024-04-05T03:00:00:Z","depth":0,"parameterNumber":2,"parameterNumberName":"U-component_of_WINDS"},"data":[0,0,0,0,0,0,0,0,0,0,0,0,0,0,0,0,0,0,0,0,0,0,0,0,0,0,0,0,0,0,0,0,0,0,0,0,0,0,0,0,0,0,0,0,0,0,0,0,0,0,0,0,0,0,0,0,0,0,-3.6001,-3.6,0,-3.594,-3.5939,-3.5938,-3.5786,-3.5783,-3.578,-3.5777,-3.5717,-3.5719,-3.572,0,0,0,0,0,0,0,0,0,0,0,0,0,-3.5992,-3.5993,-3.6001,-3.6,-3.5999,-3.594,-3.5939,-3.5938,-3.5787,-3.5783,-3.5779,-3.5776,-3.5717,-3.5718,-3.572,0,0,0,0,0,0,0,0,0,0,0,0,0,-3.597,-3.5993,-3.6001,-3.5917,-3.5909,-3.594,-3.5939,-3.5938,-3.5788,-3.5783,-3.5778,-3.5774,-3.5716,-3.5718,-3.572,-3.5829,0,0,-3.5727,-3.5728,0,0,0,0,0,0,0,0,-3.5971,-3.597,-3.593,-3.5923,-3.5914,-3.5866,-3.5913,-3.5902,-3.5789,-3.5834,-3.5777,-3.5771,-3.5771,-3.5768,-3.5767,-3.5826,-3.5824,-3.5727,-3.5728,-3.5729,-3.573,0,0,0,0,0,0,0,-3.5973,-3.5972,-3.5977,-3.593,-3.592,-3.5884,-3.5875,-3.5911,-3.583,-3.583,-3.5818,-3.5813,-3.5765,-3.5765,-3.5765,-3.5823,-3.5727,-3.5729,-3.573,-3.5731,-3.5971,-3.5975,0,0,0,0,0,0,-3.5986,-3.5975,-3.5979,-3.5975,-3.5931,-3.5888,-3.5878,-3.5886,-3.5829,-3.5816,-3.5817,-3.5806,-3.5764,-3.5762,-3.5762,-3.5886,-3.5729,-3.5731,-3.5732,-3.5966,-3.5972,-3.5977,0,0,0,0,0,0,-3.5987,-3.5988,-3.5981,-3.5972,-3.5968,-3.5893,-3.5903,-3.5887,-3.5887,-3.582,-3.5805,-3.5832,-3.576,-3.5759,-3.5814,-3.5882,-3.5732,-3.5734,-3.596,-3.5967,-3.5975,-3.6135,0,0,0,0,0,0,-3.5987,-3.5989,-3.6028,-3.5974,-3.5969,-3.6033,-3.5907,-3.589,-3.5891,-3.5876,-3.583,-3.5817,-3.5756,-3.5812,-3.5816,-3.5882,-3.5735,-3.5953,-3.5963,-3.5972,-3.6123,-3.6147,-3.6168,0,0,0,0,0,-3.5987,-3.6076,-3.6031,-3.6032,-3.6016,-3.6037,-3.6035,-3.5962,-3.5897,-3.5936,-3.5894,-3.5819,-3.5874,-3.5818,-3.5822,-3.589,-3.5948,-3.596,-3.5971,-3.6113,-3.6143,-3.6167,0,0,0,0,0,0,-3.6141,-3.6067,-3.6016,-3.609,-3.6071,-3.6011,-3.6059,-3.5995,-3.5994,-3.5981,-3.5892,-3.5883,-3.595,-3.5925,-3.5865,-3.5993,-3.5899,-3.5912,-3.6006,-3.6033,-3.6055,-3.6059,-3.5737,0,0,0,0,0,-3.6184,-3.6205,-3.614,-3.6212,-3.6205,-3.6135,-3.6141,-3.6087,-3.6063,-3.6055,-3.6016,-3.5997,-3.601,-3.6021,-3.6029,-3.612,-3.6109,-3.6169,-3.6191,-3.621,-3.6221,-3.6269,-3.6295,-3.6015,-3.6015,-3.6015,0,0,-3.6271,-3.6234,-3.6253,-3.6242,-3.622,-3.6247,-3.6128,-3.616,-3.6179,-3.606,-3.6108,-3.608,-3.6054,-3.6128,-3.6158,-3.6109,-3.6297,-3.6225,-3.624,-3.6241,-3.6284,-3.631,-3.6334,-3.6023,-3.6022,-3.602,0,0,-3.6444,-3.6418,-3.6475,-3.6457,-3.6426,-3.6379,-3.6394,-3.6344,-3.6321,-3.6368,-3.628,-3.6302,-3.6327,-3.6312,-3.6308,-3.648,-3.6411,-3.6485,-3.6601,-3.6648,-3.667,-3.6689,-3.675,-3.6774,-3.6497,-3.6498,-3.6498,0,-3.6557,-3.6591,-3.6512,-3.655,-3.6549,-3.6443,-3.6501,-3.6487,-3.6462,-3.6464,-3.641,-3.644,-3.6415,-3.6484,-3.6526,-3.6527,-3.6541,-3.6489,-3.6673,-3.6692,-3.6708,-3.6766,-3.6789,-3.6507,-3.6506,-3.6505,-3.6504,0,-3.6731,-3.6757,-3.6807,-3.6785,-3.6789,-3.6838,-3.6768,-3.6783,-3.673,-3.6689,-3.6741,-3.6708,-3.6708,-3.6721,-3.667,-3.6784,-3.6755,-3.6689,-3.6592,-3.6745,-3.6798,-3.6819,-3.652,-3.6517,-3.6514,-3.6512,0,0,-3.6995,-3.6932,-3.6951,-3.694,-3.6901,-3.692,-3.6965,-3.6965,-3.6979,-3.6967,-3.7003,-3.7028,-3.6967,-3.6962,-3.6909,-3.6951,-3.709,-3.6879,-3.6877,-3.6919,-3.7215,-3.7264,-3.7291,-3.7046,-3.7049,-3.7053,-3.7217,0,-3.7157,-3.7228,-3.716,-3.7245,-3.7269,-3.7171,-3.721,-3.7192,-3.7156,-3.7172,-3.7134,-3.7152,-3.7071,-3.7067,-3.7105,-3.7065,-3.7148,-3.7053,-3.7078,-3.708,-3.7086,-3.7318,-3.7369,-3.7526,-3.7237,-3.724,-3.7243,0,-3.7354,-3.735,-3.7438,-3.7395,-3.7402,-3.7439,-3.7434,-3.7451,-3.7429,-3.74,-3.7398,-3.7333,-3.7376,-3.7284,-3.7343,-3.7279,-3.7287,-3.727,-3.7274,-3.7272,-3.7169,-3.7321,-3.7574,-3.7597,-3.7275,-3.7272,-3.727,0,-3.7537,-3.7555,-3.7609,-3.7604,-3.7555,-3.7583,-3.7565,-3.7538,-3.7543,-3.7541,-3.7543,-3.7547,-3.7548,-3.7553,-3.7492,-3.7431,-3.7559,-3.7461,-3.7537,-3.7539,-3.7566,-3.7565,-3.7822,-3.7574,-3.7574,-3.7573,-3.7573,0,-3.7723,-3.778,-3.7691,-3.7724,-3.7787,-3.771,-3.7775,-3.7746,-3.7724,-3.7751,-3.7668,-3.7696,-3.7615,-3.7635,-3.7588,-3.7644,-3.7646,-3.7625,-3.7611,-3.7631,-3.7634,-3.7633,-3.762,-3.7579,-3.7578,-3.7577,-3.7576,0,-3.7936,-3.7879,-3.7932,-3.7883,-3.7872,-3.792,-3.7878,-3.7908,-3.7869,-3.7905,-3.791,-3.7848,-3.7868,-3.7809,-3.7819,-3.7787,-3.7869,-3.7839,-3.7876,-3.7866,-3.7945,-3.7938,-3.8209,-3.8241,-3.7975,-3.7977,-3.798,0,-3.8058,-3.81,-3.8056,-3.8068,-3.8054,-3.8075,-3.808,-3.8009,-3.8018,-3.7998,-3.8031,-3.8044,-3.805,-3.8086,-3.8043,-3.8052,-3.802,-3.8115,-3.802,-3.804,-3.8021,-3.8018,-3.8022,-3.8134,-3.8137,-3.814,-3.8142,0,-3.828,-3.825,-3.826,-3.8262,-3.8271,-3.8269,-3.8261,-3.8276,-3.82,-3.8215,-3.8234,-3.8239,-3.825,-3.8265,-3.8264,-3.8246,-3.8182,-3.8173,-3.819,-3.821,-3.8229,-3.8219,-3.7928,-3.8166,-3.8163,-3.8161,-3.816,-3.8159,-3.845,-3.8483,-3.8457,-3.8473,-3.846,-3.8455,-3.8481,-3.8446,-3.8461,-3.8463,-3.8422,-3.845,-3.843,-3.8423,-3.8412,-3.8434,-3.839,-3.8416,-3.8423,-3.843,-3.8443,-3.8228,-3.8434,-3.8433,-3.8433,-3.8432,-3.8431,0,-3.8666,-3.8646,-3.8661,-3.8653,-3.8666,-3.8605,-3.8595,-3.8609,-3.8635,-3.8622,-3.863,-3.8654,-3.8668,-3.8628,-3.8637,-3.8662,-3.8633,-3.8667,-3.8663,-3.8661,-3.8481,-3.8465,-3.869,-3.869,-3.869,-3.869,-3.869,-3.869,-3.878,-3.8833,-3.8801,-3.8848,-3.8828,-3.8854,-3.8854,-3.885,-3.8839,-3.8869,-3.888,-3.8854,-3.8831,-3.8838,-3.8849,-3.8837,-3.8844,-3.8888,-3.8866,-3.8698,-3.8673,-3.8649,-3.8633,-3.889,-3.889,-3.9042,-3.9044,-3.9045]},{"header":{"parameterUnit":"m.s-1","parameterCategory":1,"la1":30.2991,"la2":30.254,"lo1":-89.0895,"lo2":-89.0444,"dy":0.0017,"dx":0.0017,"nx":28,"ny":28,"refTime":"2024-04-05T03:00:00:Z","depth":0,"parameterNumber":3,"parameterNumberName":"V-component_of_WINDS"},"data":[0,0,0,0,0,0,0,0,0,0,0,0,0,0,0,0,0,0,0,0,0,0,0,0,0,0,0,0,0,0,0,0,0,0,0,0,0,0,0,0,0,0,0,0,0,0,0,0,0,0,0,0,0,0,0,0,0,0,2.1001,2.1,0,2.0942,2.0941,2.0941,2.0941,2.0942,2.0943,2.0944,2.0877,2.0875,2.0872,0,0,0,0,0,0,0,0,0,0,0,0,0,2.111,2.1108,2.1001,2.1,2.0999,2.0942,2.0941,2.094,2.0941,2.0942,2.0943,2.0944,2.0878,2.0875,2.0872,0,0,0,0,0,0,0,0,0,0,0,0,0,2.1058,2.1107,2.1001,2.0993,2.0992,2.0942,2.0941,2.094,2.0941,2.0942,2.0943,2.0944,2.0879,2.0875,2.0872,2.0825,0,0,2.086,2.0859,0,0,0,0,0,0,0,0,2.1061,2.1054,2.0995,2.0993,2.0992,2.095,2.0955,2.0901,2.0941,2.096,2.0944,2.0945,2.09,2.0895,2.0881,2.0821,2.0819,2.086,2.0858,2.0856,2.0855,0,0,0,0,0,0,0,2.1064,2.1056,2.0977,2.0994,2.0992,2.0991,2.0985,2.0945,2.0924,2.0958,2.0958,2.0952,2.0899,2.0885,2.0879,2.0818,2.086,2.0857,2.0854,2.0853,2.0718,2.0717,0,0,0,0,0,0,2.107,2.1059,2.0979,2.0976,2.103,2.0988,2.0981,2.0962,2.0924,2.092,2.0951,2.0952,2.089,2.0884,2.0877,2.082,2.0856,2.0852,2.085,2.0719,2.0718,2.0716,0,0,0,0,0,0,2.1073,2.1063,2.0982,2.1017,2.1007,2.0985,2.0964,2.096,2.0946,2.0919,2.0914,2.0939,2.0891,2.0882,2.0838,2.0817,2.0851,2.0847,2.0721,2.0719,2.0717,2.0705,0,0,0,0,0,0,2.1076,2.1064,2.1046,2.1017,2.1005,2.0945,2.0962,2.0958,2.094,2.0941,2.0907,2.0902,2.0891,2.0844,2.0835,2.0813,2.0844,2.0722,2.072,2.0717,2.0707,2.0702,2.0699,0,0,0,0,0,2.108,2.1044,2.1046,2.1036,2.0983,2.0944,2.0937,2.0926,2.0938,2.092,2.0903,2.0903,2.0822,2.0839,2.0829,2.0806,2.0724,2.0721,2.0718,2.0708,2.0703,2.0699,0,0,0,0,0,0,2.1068,2.104,2.1041,2.0995,2.0972,2.0944,2.092,2.0921,2.0892,2.0894,2.0881,2.0873,2.083,2.0813,2.0834,2.0759,2.0774,2.0769,2.0771,2.0765,2.0762,2.0765,2.0841,0,0,0,0,0,2.1061,2.1033,2.1009,2.0971,2.0959,2.0942,2.0925,2.0919,2.0894,2.0883,2.0863,2.0837,2.0806,2.0785,2.0754,2.0705,2.0698,2.0684,2.068,2.0677,2.0672,2.0646,2.0639,2.0706,2.0706,2.0706,0,0,2.1044,2.1026,2.1008,2.0968,2.0949,2.092,2.0934,2.0901,2.0878,2.0878,2.0835,2.082,2.079,2.0744,2.0722,2.0729,2.0653,2.0673,2.0671,2.0668,2.0642,2.0635,2.063,2.0704,2.0705,2.0705,0,0,2.0999,2.0982,2.0949,2.0931,2.0904,2.0894,2.0886,2.0858,2.0848,2.0807,2.0806,2.0778,2.0724,2.0704,2.0686,2.0636,2.0635,2.0627,2.0605,2.0579,2.0574,2.0569,2.0551,2.0544,2.0622,2.0622,2.0622,0,2.0981,2.0938,2.0931,2.0899,2.0882,2.0883,2.0849,2.0831,2.0795,2.0782,2.0791,2.0725,2.0704,2.0653,2.0642,2.0628,2.0617,2.0629,2.0575,2.0571,2.0566,2.0548,2.0542,2.0621,2.0621,2.0621,2.0621,0,2.0917,2.0887,2.0864,2.0831,2.0811,2.0778,2.0765,2.0746,2.0743,2.0731,2.0689,2.0665,2.0631,2.0619,2.0614,2.0567,2.0572,2.0579,2.0593,2.0559,2.0542,2.0535,2.062,2.062,2.062,2.0621,0,0,2.086,2.0827,2.0818,2.0804,2.0776,2.0752,2.072,2.0688,2.0671,2.0647,2.0618,2.0575,2.0581,2.0561,2.0555,2.0532,2.0494,2.0541,2.054,2.0533,2.0441,2.0436,2.0428,2.0495,2.0494,2.0493,2.0443,0,2.0811,2.0755,2.0749,2.0698,2.0671,2.0673,2.0645,2.0624,2.0612,2.0586,2.0573,2.0542,2.0553,2.0541,2.052,2.0504,2.0476,2.0507,2.0467,2.0465,2.0473,2.0419,2.0413,2.0367,2.0437,2.0436,2.0435,0,2.0745,2.0722,2.0669,2.0647,2.0635,2.061,2.0581,2.0557,2.0533,2.0527,2.0506,2.0504,2.0469,2.0487,2.0439,2.0461,2.0444,2.0434,2.0432,2.0427,2.0447,2.0411,2.0353,2.0345,2.0425,2.0425,2.0426,0,2.0708,2.0664,2.0627,2.0615,2.0587,2.057,2.0557,2.0535,2.0518,2.0493,2.0481,2.0451,2.0435,2.0412,2.0401,2.0415,2.0353,2.037,2.0345,2.0346,2.033,2.0331,2.0267,2.0322,2.0322,2.0322,2.0323,0,2.0653,2.062,2.061,2.0587,2.055,2.0545,2.0508,2.0496,2.0477,2.0451,2.0452,2.0427,2.0415,2.0388,2.0379,2.0341,2.0333,2.0326,2.0324,2.0325,2.0326,2.0313,2.0315,2.0321,2.0321,2.0321,2.0322,0,2.0604,2.0596,2.0556,2.0535,2.0529,2.0503,2.0484,2.0462,2.0453,2.042,2.0411,2.0396,2.0364,2.0353,2.0313,2.0308,2.0263,2.0264,2.0271,2.027,2.0246,2.0248,2.017,2.0159,2.0223,2.0222,2.0222,0,2.0569,2.0544,2.0522,2.0506,2.0494,2.0467,2.045,2.0444,2.0425,2.0399,2.0379,2.0349,2.0324,2.0274,2.0258,2.0228,2.0227,2.0202,2.0223,2.0225,2.0226,2.0227,2.0224,2.0198,2.0197,2.0197,2.0196,0,2.0507,2.0505,2.0481,2.0456,2.0436,2.0416,2.0396,2.0382,2.0373,2.0352,2.0322,2.0303,2.0265,2.0235,2.0205,2.0191,2.0191,2.0191,2.0183,2.0183,2.0188,2.0185,2.026,2.0191,2.0192,2.0192,2.0193,2.0193,2.0463,2.0442,2.0423,2.0397,2.0382,2.0364,2.0343,2.0332,2.0307,2.0277,2.0275,2.0242,2.022,2.0181,2.0166,2.0139,2.0146,2.0135,2.0132,2.0129,2.0127,2.0195,2.0134,2.0134,2.0134,2.0134,2.0134,0,2.04,2.039,2.0366,2.0339,2.0319,2.0325,2.0304,2.0286,2.0257,2.0238,2.0215,2.018,2.0152,2.0135,2.0106,2.0088,2.0087,2.008,2.008,2.0077,2.0123,2.0132,2.0081,2.0081,2.0081,2.0081,2.0081,2.0081,2.0365,2.033,2.0326,2.0283,2.0272,2.0242,2.0229,2.0213,2.0198,2.016,2.0137,2.0127,2.0109,2.0079,2.0053,2.0049,2.0037,2.0029,2.0025,2.0068,2.0074,2.0079,2.0087,2.0027,2.0027,1.9981,1.9981,1.9981]}]]